| time (UTC) | temp C | wind direction | speed KPH | gust KPH | rain 1hr cm | rain 24hr cm | rain mn cm | humidity % | barometer mb |
| 20260503005515 | 15 | 210 | 6.4 | 16.1 | 0.00 | 0.00 | 0.00 | 43 | 1011.4 |
| 20260503005014 | 15 | 230 | 6.4 | 16.1 | 0.00 | 0.00 | 0.00 | 43 | 1011.4 |
| 20260503004537 | 15 | 227 | 4.8 | 14.5 | 0.00 | 0.00 | 0.00 | 44 | 1011.5 |
| 20260503004014 | 15 | 236 | 4.8 | 14.5 | 0.00 | 0.00 | 0.00 | 44 | 1011.5 |
| 20260503003514 | 15 | 242 | 8.0 | 14.5 | 0.00 | 0.00 | 0.00 | 42 | 1011.6 |
| 20260503003038 | 15 | 263 | 6.4 | 17.7 | 0.00 | 0.00 | 0.00 | 44 | 1011.6 |
| 20260503002514 | 15 | 285 | 6.4 | 17.7 | 0.00 | 0.00 | 0.00 | 44 | 1011.6 |
| 20260503002014 | 15 | 214 | 4.8 | 14.5 | 0.00 | 0.00 | 0.00 | 46 | 1011.7 |
| 20260503001532 | 15 | 225 | 6.4 | 14.5 | 0.00 | 0.00 | 0.00 | 44 | 1011.7 |
| 20260503001015 | 15 | 200 | 6.4 | 14.5 | 0.00 | 0.00 | 0.00 | 44 | 1011.8 |
| 20260503000518 | 15 | 214 | 8.0 | 14.5 | 0.00 | 0.00 | 0.00 | 44 | 1011.8 |
| 20260503000037 | 15 | 205 | 6.4 | 17.7 | 0.00 | 0.00 | 0.00 | 43 | 1011.8 |
| 20260502235514 | 15 | 198 | 4.8 | 17.7 | 0.00 | 0.00 | 0.00 | 44 | 1011.9 |
| 20260502235015 | 15 | 230 | 6.4 | 14.5 | 0.00 | 0.00 | 0.00 | 43 | 1011.9 |
| 20260502234542 | 15 | 247 | 4.8 | 16.1 | 0.00 | 0.00 | 0.00 | 42 | 1011.9 |
| 20260502234014 | 15 | 232 | 6.4 | 16.1 | 0.00 | 0.00 | 0.00 | 43 | 1011.9 |
| 20260502233512 | 15 | 238 | 6.4 | 11.3 | 0.00 | 0.00 | 0.00 | 42 | 1012.0 |
| 20260502233033 | 15 | 216 | 4.8 | 14.5 | 0.00 | 0.00 | 0.00 | 42 | 1012.0 |
| 20260502232515 | 15 | 215 | 8.0 | 14.5 | 0.00 | 0.00 | 0.00 | 41 | 1012.1 |
| 20260502232015 | 15 | 220 | 4.8 | 16.1 | 0.00 | 0.00 | 0.00 | 41 | 1012.1 |
| 20260502231532 | 15 | 229 | 9.7 | 16.1 | 0.00 | 0.00 | 0.00 | 40 | 1012.2 |
| 20260502231015 | 15 | 231 | 8.0 | 17.7 | 0.00 | 0.00 | 0.00 | 41 | 1012.2 |
| 20260502230515 | 15 | 242 | 11.3 | 17.7 | 0.00 | 0.00 | 0.00 | 40 | 1012.3 |
| 20260502230034 | 15 | 236 | 8.0 | 19.3 | 0.00 | 0.00 | 0.00 | 41 | 1012.3 |
| 20260502225514 | 15 | 232 | 6.4 | 19.3 | 0.00 | 0.00 | 0.00 | 40 | 1012.3 |
| 20260502225014 | 15 | 207 | 8.0 | 19.3 | 0.00 | 0.00 | 0.00 | 42 | 1012.4 |
| 20260502224534 | 15 | 251 | 6.4 | 22.5 | 0.00 | 0.00 | 0.00 | 42 | 1012.5 |
| 20260502224016 | 15 | 276 | 9.7 | 22.5 | 0.00 | 0.00 | 0.00 | 40 | 1012.6 |
| 20260502223514 | 15 | 279 | 11.3 | 19.3 | 0.00 | 0.00 | 0.00 | 40 | 1012.8 |
| 20260502223034 | 16 | 231 | 9.7 | 17.7 | 0.00 | 0.00 | 0.00 | 40 | 1012.9 |
| 20260502222513 | 16 | 232 | 9.7 | 17.7 | 0.00 | 0.00 | 0.00 | 40 | 1013.0 |
| 20260502222015 | 15 | 244 | 8.0 | 16.1 | 0.00 | 0.00 | 0.00 | 41 | 1013.0 |
| 20260502221533 | 15 | 244 | 6.4 | 16.1 | 0.00 | 0.00 | 0.00 | 41 | 1013.1 |
| 20260502221015 | 15 | 225 | 8.0 | 19.3 | 0.00 | 0.00 | 0.00 | 40 | 1013.2 |
| 20260502220514 | 16 | 252 | 11.3 | 19.3 | 0.00 | 0.00 | 0.00 | 39 | 1013.0 |
| 20260502220031 | 16 | 259 | 8.0 | 24.1 | 0.00 | 0.00 | 0.00 | 38 | 1013.2 |
| 20260502215517 | 16 | 251 | 11.3 | 24.1 | 0.00 | 0.00 | 0.00 | 40 | 1013.1 |
| 20260502215015 | 16 | 234 | 11.3 | 22.5 | 0.00 | 0.00 | 0.00 | 40 | 1013.2 |
| 20260502214537 | 16 | 214 | 11.3 | 22.5 | 0.00 | 0.00 | 0.00 | 39 | 1013.2 |
| 20260502214014 | 15 | 250 | 8.0 | 16.1 | 0.00 | 0.00 | 0.00 | 42 | 1013.3 |
| 20260502213514 | 15 | 242 | 6.4 | 20.9 | 0.00 | 0.00 | 0.00 | 40 | 1013.3 |
| 20260502213043 | 15 | 218 | 9.7 | 20.9 | 0.00 | 0.00 | 0.00 | 40 | 1013.5 |
| 20260502212515 | 15 | 240 | 11.3 | 20.9 | 0.00 | 0.00 | 0.00 | 40 | 1013.6 |
| 20260502212018 | 15 | 254 | 9.7 | 24.1 | 0.00 | 0.00 | 0.00 | 39 | 1013.7 |
| 20260502211537 | 16 | 194 | 12.9 | 24.1 | 0.00 | 0.00 | 0.00 | 41 | 1013.7 |
| 20260502211014 | 16 | 234 | 11.3 | 22.5 | 0.00 | 0.00 | 0.00 | 41 | 1013.6 |
| 20260502210515 | 15 | 179 | 9.7 | 22.5 | 0.00 | 0.00 | 0.00 | 39 | 1013.7 |
| 20260502210032 | 15 | 202 | 11.3 | 22.5 | 0.00 | 0.00 | 0.00 | 38 | 1013.9 |
| 20260502205517 | 15 | 201 | 9.7 | 20.9 | 0.00 | 0.00 | 0.00 | 40 | 1013.9 |
| 20260502205014 | 16 | 299 | 9.7 | 24.1 | 0.00 | 0.00 | 0.00 | 41 | 1013.8 |
| 20260502204533 | 15 | 240 | 11.3 | 24.1 | 0.00 | 0.00 | 0.00 | 39 | 1014.0 |
| 20260502204016 | 15 | 234 | 12.9 | 32.2 | 0.00 | 0.00 | 0.00 | 39 | 1014.2 |
| 20260502203514 | 15 | 229 | 16.1 | 32.2 | 0.00 | 0.00 | 0.00 | 39 | 1014.3 |
| 20260502203041 | 15 | 204 | 8.0 | 19.3 | 0.00 | 0.00 | 0.00 | 39 | 1014.2 |
| 20260502202514 | 15 | 211 | 8.0 | 19.3 | 0.00 | 0.00 | 0.00 | 39 | 1014.4 |
| 20260502202014 | 15 | 227 | 9.7 | 22.5 | 0.00 | 0.00 | 0.00 | 41 | 1014.4 |
| 20260502201538 | 15 | 220 | 12.9 | 25.7 | 0.00 | 0.00 | 0.00 | 40 | 1014.6 |
| 20260502201018 | 15 | 221 | 12.9 | 25.7 | 0.00 | 0.00 | 0.00 | 40 | 1014.6 |
| 20260502200516 | 15 | 264 | 8.0 | 19.3 | 0.00 | 0.00 | 0.00 | 38 | 1014.7 |
| 20260502200036 | 15 | 250 | 9.7 | 25.7 | 0.00 | 0.00 | 0.00 | 41 | 1014.8 |
| 20260502195514 | 15 | 307 | 8.0 | 25.7 | 0.00 | 0.00 | 0.00 | 39 | 1014.8 |
| 20260502195016 | 15 | 327 | 11.3 | 25.7 | 0.00 | 0.00 | 0.00 | 42 | 1015.0 |
| 20260502194535 | 15 | 238 | 6.4 | 29.0 | 0.00 | 0.00 | 0.00 | 39 | 1015.1 |
| 20260502194014 | 15 | 242 | 12.9 | 29.0 | 0.00 | 0.00 | 0.00 | 39 | 1015.2 |
| 20260502193515 | 15 | 226 | 12.9 | 24.1 | 0.00 | 0.00 | 0.00 | 45 | 1015.3 |
| 20260502193050 | 14 | 216 | 9.7 | 25.7 | 0.00 | 0.00 | 0.00 | 42 | 1015.3 |
| 20260502192518 | 15 | 252 | 16.1 | 30.6 | 0.00 | 0.00 | 0.00 | 37 | 1015.4 |
| 20260502192018 | 14 | 201 | 16.1 | 30.6 | 0.00 | 0.00 | 0.00 | 39 | 1015.6 |
| 20260502191536 | 14 | 227 | 12.9 | 22.5 | 0.00 | 0.00 | 0.00 | 40 | 1015.6 |
| 20260502191015 | 14 | 233 | 14.5 | 22.5 | 0.00 | 0.00 | 0.00 | 39 | 1015.8 |
| 20260502190515 | 14 | 261 | 12.9 | 22.5 | 0.00 | 0.00 | 0.00 | 39 | 1015.8 |
| 20260502190036 | 14 | 259 | 9.7 | 25.7 | 0.00 | 0.00 | 0.00 | 43 | 1015.8 |
| 20260502185516 | 13 | 173 | 12.9 | 25.7 | 0.00 | 0.00 | 0.00 | 41 | 1015.9 |
| 20260502185014 | 13 | 211 | 14.5 | 24.1 | 0.00 | 0.00 | 0.00 | 41 | 1015.9 |
| 20260502184543 | 14 | 252 | 11.3 | 25.7 | 0.00 | 0.00 | 0.00 | 42 | 1016.0 |
| 20260502184014 | 13 | 245 | 12.9 | 25.7 | 0.00 | 0.00 | 0.00 | 45 | 1016.1 |
| 20260502183516 | 13 | 266 | 12.9 | 24.1 | 0.00 | 0.00 | 0.00 | 42 | 1016.2 |
| 20260502183034 | 13 | 239 | 11.3 | 24.1 | 0.00 | 0.00 | 0.00 | 41 | 1016.3 |
| 20260502182514 | 13 | 231 | 12.9 | 22.5 | 0.00 | 0.00 | 0.00 | 42 | 1016.4 |
| 20260502182013 | 13 | 286 | 11.3 | 19.3 | 0.00 | 0.00 | 0.00 | 42 | 1016.4 |
| 20260502181536 | 13 | 273 | 6.4 | 25.7 | 0.00 | 0.00 | 0.00 | 44 | 1016.4 |
| 20260502181016 | 13 | 234 | 9.7 | 25.7 | 0.00 | 0.00 | 0.00 | 42 | 1016.4 |
| 20260502180516 | 13 | 333 | 12.9 | 25.7 | 0.00 | 0.00 | 0.00 | 43 | 1016.5 |
| 20260502170517 | 12 | 295 | 8.0 | 24.1 | 0.00 | 0.00 | 0.00 | 43 | 1017.3 |
| 20260502164016 | 12 | 284 | 12.9 | 22.5 | 0.00 | 0.00 | 0.00 | 42 | 1017.4 |
| 20260502163516 | 12 | 340 | 9.7 | 29.0 | 0.00 | 0.00 | 0.00 | 40 | 1017.4 |
| 20260502163035 | 12 | 200 | 12.9 | 29.0 | 0.00 | 0.00 | 0.00 | 43 | 1017.6 |
| 20260502162516 | 12 | 254 | 12.9 | 29.0 | 0.00 | 0.00 | 0.00 | 41 | 1017.6 |
| 20260502162016 | 12 | 244 | 11.3 | 20.9 | 0.00 | 0.00 | 0.00 | 44 | 1017.8 |
| 20260502161537 | 12 | 311 | 9.7 | 20.9 | 0.00 | 0.00 | 0.00 | 47 | 1017.7 |
| 20260502161016 | 12 | 263 | 9.7 | 20.9 | 0.00 | 0.00 | 0.00 | 44 | 1017.8 |
| 20260502160517 | 11 | 250 | 9.7 | 20.9 | 0.00 | 0.00 | 0.00 | 46 | 1017.9 |
| 20260502152017 | 11 | 270 | 6.4 | 20.9 | 0.00 | 0.00 | 0.00 | 53 | 1018.2 |
| 20260502151536 | 11 | 320 | 11.3 | 24.1 | 0.00 | 0.00 | 0.00 | 49 | 1018.1 |
| 20260502151016 | 10 | 323 | 14.5 | 24.1 | 0.00 | 0.00 | 0.00 | 47 | 1018.3 |
| 20260502150513 | 10 | 310 | 12.9 | 22.5 | 0.00 | 0.00 | 0.00 | 48 | 1018.3 |
| 20260502130515 | 5 | 248 | 4.8 | 11.3 | 0.00 | 0.00 | 0.00 | 68 | 1018.6 |
| 20260502123518 | 5 | 244 | 3.2 | 6.4 | 0.00 | 0.00 | 0.00 | 70 | 1018.8 |
| 20260502123031 | 5 | 245 | 3.2 | 6.4 | 0.00 | 0.00 | 0.00 | 72 | 1018.6 |
| 20260502122516 | 4 | 245 | 3.2 | 6.4 | 0.00 | 0.00 | 0.00 | 72 | 1018.7 |
| 20260502122019 | 4 | 244 | 1.6 | 4.8 | 0.00 | 0.00 | 0.00 | 72 | 1018.5 |
| 20260502121534 | 3 | 244 | 3.2 | 4.8 | 0.00 | 0.00 | 0.00 | 73 | 1018.4 |
| 20260502121015 | 3 | 244 | 1.6 | 4.8 | 0.00 | 0.00 | 0.00 | 74 | 1018.5 |
| 20260502120518 | 3 | 244 | 3.2 | 4.8 | 0.00 | 0.00 | 0.00 | 73 | 1018.4 |
| 20260502115517 | 3 | 244 | 1.6 | 4.8 | 0.00 | 0.00 | 0.00 | 73 | 1018.3 |
| 20260502115015 | 3 | 244 | 3.2 | 4.8 | 0.00 | 0.00 | 0.00 | 73 | 1018.3 |
| 20260502114532 | 3 | 244 | 3.2 | 4.8 | 0.00 | 0.00 | 0.00 | 72 | 1018.2 |
| 20260502114021 | 3 | 244 | 1.6 | 4.8 | 0.00 | 0.00 | 0.00 | 72 | 1018.3 |
| 20260502113513 | 3 | 244 | 1.6 | 4.8 | 0.00 | 0.00 | 0.00 | 72 | 1018.3 |
| 20260502113039 | 3 | 244 | 1.6 | 4.8 | 0.00 | 0.00 | 0.00 | 72 | 1018.2 |
| 20260502112514 | 3 | 244 | 1.6 | 4.8 | 0.00 | 0.00 | 0.00 | 71 | 1018.2 |
| 20260502112012 | 3 | 244 | 1.6 | 4.8 | 0.00 | 0.00 | 0.00 | 71 | 1018.2 |
| 20260502111532 | 3 | 244 | 1.6 | 4.8 | 0.00 | 0.00 | 0.00 | 71 | 1018.2 |
| 20260502111016 | 3 | 244 | 1.6 | 3.2 | 0.00 | 0.00 | 0.00 | 71 | 1018.1 |
| 20260502110516 | 3 | 244 | 1.6 | 4.8 | 0.00 | 0.00 | 0.00 | 71 | 1018.1 |
| 20260502110036 | 3 | 244 | 1.6 | 4.8 | 0.00 | 0.00 | 0.00 | 71 | 1018.1 |
| 20260502105516 | 3 | 244 | 1.6 | 4.8 | 0.00 | 0.00 | 0.00 | 71 | 1018.2 |
| 20260502105015 | 3 | 244 | 1.6 | 3.2 | 0.00 | 0.00 | 0.00 | 71 | 1018.1 |
| 20260502104536 | 3 | 244 | 1.6 | 4.8 | 0.00 | 0.00 | 0.00 | 72 | 1018.0 |
| 20260502104014 | 3 | 244 | 1.6 | 4.8 | 0.00 | 0.00 | 0.00 | 72 | 1018.1 |
| 20260502103517 | 3 | 244 | 1.6 | 4.8 | 0.00 | 0.00 | 0.00 | 73 | 1018.1 |
| 20260502103031 | 3 | 244 | 1.6 | 4.8 | 0.00 | 0.00 | 0.00 | 72 | 1018.1 |
| 20260502102516 | 3 | 244 | 3.2 | 4.8 | 0.00 | 0.00 | 0.00 | 72 | 1018.1 |
| 20260502102015 | 3 | 244 | 3.2 | 4.8 | 0.00 | 0.00 | 0.00 | 72 | 1018.1 |
| 20260502101538 | 3 | 244 | 3.2 | 6.4 | 0.00 | 0.00 | 0.00 | 72 | 1018.2 |
| 20260502101014 | 3 | 244 | 3.2 | 6.4 | 0.00 | 0.00 | 0.00 | 72 | 1018.2 |
| 20260502100514 | 3 | 244 | 3.2 | 4.8 | 0.00 | 0.00 | 0.00 | 72 | 1018.2 |
| 20260502091018 | 3 | 244 | 4.8 | 8.0 | 0.00 | 0.00 | 0.00 | 74 | 1018.3 |
| 20260502090518 | 4 | 244 | 4.8 | 8.0 | 0.00 | 0.00 | 0.00 | 74 | 1018.3 |
| 20260502071533 | 5 | 244 | 1.6 | 4.8 | 0.00 | 0.00 | 0.00 | 60 | 1018.4 |
| 20260502071014 | 5 | 244 | 1.6 | 8.0 | 0.00 | 0.00 | 0.00 | 59 | 1018.5 |
| 20260502070518 | 5 | 244 | 3.2 | 8.0 | 0.00 | 0.00 | 0.00 | 60 | 1018.5 |
| 20260502070053 | 5 | 306 | 1.6 | 4.8 | 0.00 | 0.00 | 0.00 | 58 | 1018.5 |
| 20260502065515 | 5 | 306 | 3.2 | 4.8 | 0.00 | 0.00 | 0.00 | 57 | 1018.4 |
| 20260502065019 | 5 | 306 | 1.6 | 4.8 | 0.00 | 0.00 | 0.00 | 58 | 1018.5 |
| 20260502064533 | 5 | 306 | 1.6 | 4.8 | 0.00 | 0.00 | 0.00 | 57 | 1018.6 |
| 20260502064014 | 5 | 306 | 3.2 | 4.8 | 0.00 | 0.00 | 0.00 | 57 | 1018.6 |
| 20260502063518 | 5 | 306 | 1.6 | 3.2 | 0.00 | 0.00 | 0.00 | 58 | 1018.7 |
| 20260502063035 | 6 | 306 | 0.0 | 4.8 | 0.00 | 0.00 | 0.00 | 61 | 1018.7 |
| 20260502062516 | 6 | 306 | 0.0 | 4.8 | 0.00 | 0.00 | 0.00 | 60 | 1018.7 |
| 20260502062015 | 6 | 306 | 1.6 | 4.8 | 0.00 | 0.00 | 0.00 | 60 | 1018.8 |
| 20260502061533 | 6 | 306 | 1.6 | 4.8 | 0.00 | 0.00 | 0.00 | 58 | 1018.7 |
| 20260502061015 | 6 | 306 | 1.6 | 4.8 | 0.00 | 0.00 | 0.00 | 56 | 1018.7 |
| 20260502060515 | 6 | 306 | 1.6 | 4.8 | 0.00 | 0.00 | 0.00 | 55 | 1018.7 |
| 20260502060041 | 6 | 306 | 0.0 | 3.2 | 0.00 | 0.00 | 0.00 | 55 | 1018.7 |
| 20260502055515 | 6 | 0 | 0.0 | 4.8 | 0.00 | 0.00 | 0.00 | 54 | 1018.6 |
| 20260502055018 | 6 | 306 | 1.6 | 4.8 | 0.00 | 0.00 | 0.00 | 54 | 1018.6 |
| 20260502054541 | 6 | 306 | 1.6 | 4.8 | 0.00 | 0.00 | 0.00 | 53 | 1018.7 |
| 20260502054014 | 6 | 306 | 1.6 | 3.2 | 0.00 | 0.00 | 0.00 | 51 | 1018.7 |
| 20260502053512 | 6 | 0 | 0.0 | 4.8 | 0.00 | 0.00 | 0.00 | 51 | 1018.6 |
| 20260502053033 | 6 | 306 | 1.6 | 4.8 | 0.00 | 0.00 | 0.00 | 51 | 1018.5 |
| 20260502052518 | 6 | 306 | 1.6 | 4.8 | 0.00 | 0.00 | 0.00 | 51 | 1018.5 |
| 20260502052014 | 6 | 306 | 0.0 | 3.2 | 0.00 | 0.00 | 0.00 | 52 | 1018.5 |
| 20260502051537 | 6 | 306 | 0.0 | 3.2 | 0.00 | 0.00 | 0.00 | 52 | 1018.5 |
| 20260502051020 | 6 | 0 | 1.6 | 3.2 | 0.00 | 0.00 | 0.00 | 52 | 1018.5 |
| 20260502050515 | 6 | 306 | 1.6 | 4.8 | 0.00 | 0.00 | 0.00 | 54 | 1018.5 |
| 20260502050032 | 6 | 306 | 1.6 | 4.8 | 0.00 | 0.00 | 0.00 | 57 | 1018.5 |
| 20260502045515 | 6 | 306 | 1.6 | 6.4 | 0.00 | 0.00 | 0.00 | 57 | 1018.5 |
| 20260502045015 | 6 | 306 | 3.2 | 6.4 | 0.00 | 0.00 | 0.00 | 53 | 1018.4 |
| 20260502044530 | 7 | 308 | 3.2 | 6.4 | 0.00 | 0.00 | 0.00 | 52 | 1018.5 |
| 20260502044015 | 7 | 317 | 3.2 | 4.8 | 0.00 | 0.00 | 0.00 | 52 | 1018.4 |
| 20260502043513 | 7 | 317 | 1.6 | 6.4 | 0.00 | 0.00 | 0.00 | 51 | 1018.4 |
| 20260502043033 | 7 | 317 | 1.6 | 6.4 | 0.00 | 0.00 | 0.00 | 52 | 1018.4 |
| 20260502042515 | 7 | 317 | 1.6 | 4.8 | 0.00 | 0.00 | 0.00 | 54 | 1018.4 |
| 20260502042017 | 7 | 336 | 1.6 | 4.8 | 0.00 | 0.00 | 0.00 | 53 | 1018.4 |
| 20260502041553 | 7 | 336 | 0.0 | 4.8 | 0.00 | 0.00 | 0.00 | 50 | 1018.3 |
| 20260502041014 | 7 | 336 | 1.6 | 4.8 | 0.00 | 0.00 | 0.00 | 50 | 1018.4 |
| 20260502040513 | 7 | 336 | 1.6 | 3.2 | 0.00 | 0.00 | 0.00 | 47 | 1018.5 |
| 20260502040048 | 7 | 0 | 0.0 | 3.2 | 0.00 | 0.00 | 0.00 | 46 | 1018.5 |
| 20260502035514 | 7 | 336 | 0.0 | 4.8 | 0.00 | 0.00 | 0.00 | 44 | 1018.5 |
| 20260502035013 | 7 | 336 | 1.6 | 4.8 | 0.00 | 0.00 | 0.00 | 44 | 1018.4 |
| 20260502034534 | 7 | 336 | 1.6 | 4.8 | 0.00 | 0.00 | 0.00 | 44 | 1018.6 |
| 20260502034014 | 7 | 336 | 1.6 | 4.8 | 0.00 | 0.00 | 0.00 | 45 | 1018.5 |
| 20260502033514 | 7 | 336 | 0.0 | 3.2 | 0.00 | 0.00 | 0.00 | 42 | 1018.6 |
| 20260502033033 | 7 | 0 | 0.0 | 3.2 | 0.00 | 0.00 | 0.00 | 41 | 1018.6 |
| 20260502032512 | 7 | 336 | 1.6 | 3.2 | 0.00 | 0.00 | 0.00 | 42 | 1018.6 |
| 20260502032014 | 7 | 336 | 1.6 | 3.2 | 0.00 | 0.00 | 0.00 | 43 | 1018.6 |
| 20260502031534 | 7 | 0 | 1.6 | 3.2 | 0.00 | 0.00 | 0.00 | 43 | 1018.6 |
| 20260502031014 | 7 | 336 | 1.6 | 3.2 | 0.00 | 0.00 | 0.00 | 44 | 1018.7 |
| 20260502030515 | 7 | 336 | 1.6 | 3.2 | 0.00 | 0.00 | 0.00 | 45 | 1018.6 |
| 20260502030049 | 7 | 336 | 0.0 | 3.2 | 0.00 | 0.00 | 0.00 | 45 | 1018.6 |
| 20260502025513 | 7 | 336 | 0.0 | 3.2 | 0.00 | 0.00 | 0.00 | 45 | 1018.6 |
| 20260502025018 | 7 | 0 | 0.0 | 3.2 | 0.00 | 0.00 | 0.00 | 45 | 1018.5 |
| 20260502024531 | 7 | 0 | 0.0 | 3.2 | 0.00 | 0.00 | 0.00 | 44 | 1018.5 |
| 20260502024013 | 7 | 336 | 0.0 | 3.2 | 0.00 | 0.00 | 0.00 | 44 | 1018.5 |
| 20260502023516 | 7 | 336 | 0.0 | 3.2 | 0.00 | 0.00 | 0.00 | 44 | 1018.4 |
| 20260502023047 | 7 | 0 | 0.0 | 3.2 | 0.00 | 0.00 | 0.00 | 44 | 1018.4 |
| 20260502022511 | 7 | 336 | 0.0 | 3.2 | 0.00 | 0.00 | 0.00 | 44 | 1018.4 |
| 20260502022013 | 7 | 336 | 0.0 | 3.2 | 0.00 | 0.00 | 0.00 | 44 | 1018.4 |
| 20260502021532 | 7 | 336 | 0.0 | 1.6 | 0.00 | 0.00 | 0.00 | 44 | 1018.3 |
| 20260502021013 | 7 | 0 | 0.0 | 1.6 | 0.00 | 0.00 | 0.00 | 44 | 1018.4 |
| 20260502020512 | 7 | 0 | 0.0 | 3.2 | 0.00 | 0.00 | 0.00 | 44 | 1018.3 |
| 20260502020032 | 7 | 0 | 0.0 | 3.2 | 0.00 | 0.00 | 0.00 | 44 | 1018.4 |
| 20260502015513 | 7 | 336 | 0.0 | 3.2 | 0.00 | 0.00 | 0.00 | 44 | 1018.3 |
| 20260502015013 | 7 | 0 | 0.0 | 3.2 | 0.00 | 0.00 | 0.00 | 44 | 1018.2 |
| 20260502014537 | 7 | 336 | 0.0 | 3.2 | 0.00 | 0.00 | 0.00 | 43 | 1018.2 |
| 20260502014013 | 8 | 336 | 0.0 | 3.2 | 0.00 | 0.00 | 0.00 | 43 | 1018.2 |
| 20260502013512 | 8 | 336 | 1.6 | 3.2 | 0.00 | 0.00 | 0.00 | 43 | 1018.2 |
| 20260502013032 | 8 | 336 | 1.6 | 3.2 | 0.00 | 0.00 | 0.00 | 43 | 1018.1 |
| 20260502012515 | 8 | 336 | 0.0 | 3.2 | 0.00 | 0.00 | 0.00 | 43 | 1017.9 |
| 20260502012014 | 8 | 336 | 0.0 | 3.2 | 0.00 | 0.00 | 0.00 | 42 | 1017.9 |
| 20260502011543 | 8 | 0 | 0.0 | 4.8 | 0.00 | 0.00 | 0.00 | 42 | 1017.9 |
| 20260502011014 | 8 | 336 | 0.0 | 4.8 | 0.00 | 0.00 | 0.00 | 41 | 1017.8 |
| 20260502010514 | 8 | 336 | 1.6 | 4.8 | 0.00 | 0.00 | 0.00 | 41 | 1017.9 |
| 20260502010033 | 8 | 0 | 0.0 | 4.8 | 0.00 | 0.00 | 0.00 | 42 | 1017.9 |